sat.trackr.live / text

‹ back to catalog

STARLINK-31946

NORAD 59940 · 2024-106U

PAYLOAD ACTIVE UNKNOWN

§ Identity

Operator
Country
US
Launch date
2024-06-01
Launch site
AFETR
Launch vehicle
Mass (kg)
RCS (m²)

Purposes: comms

External: N2YO · Heavens-Above · Gunter

§ Orbital elements

Epoch: 2026-05-25T00:44:03.591168Z

Period
94.27 min
Inclination
43.0009°
Eccentricity
0.0001190
Mean motion
15.27575339 rev/d
Perigee alt
482.2 km
Apogee alt
483.9 km
Semi-major
6,861.2 km
B*
1.1174e-5
RAAN
261.7745°
Arg perigee
274.2522°
Mean anomaly
85.8194°
Rev number
10,282

§ Raw data

STARLINK-319461 59940U 24106U   26145.03059712  .00000045  00000+0  11174-4 0  99912 59940  43.0009 261.7745 0001190 274.2522  85.8194 15.27575339102827

JSON: /api/v1/satellites/59940 · /tle

For live sub-satellite position, see the globe view (requires WebGL).

§ Visibility from observer

Set your observer location to see the next 7 days of passes ≥ 10°. The values pass through the URL so the page stays shareable.

No JS? Fill the form by hand. The geolocation button needs JavaScript.